CST-100 STARLINER OFT-2 (52715 NORAD) Tracking and Keplerian Element Data

This shows tracking and keplerian element data for the satellite.

Feedback or suggestion? Click here.




ElementValue
Catalog52715
NameCST-100 STARLINER OFT-2
Epoch Orbit34136
Epoch Day143.57912155
Epoch Year2022
RAAN98.464
Inclination51.6434
Eccentricity0.0005026
Argument of Perigee147.1299
Mean Anonmoly4.6316
Mean Motion15.49630252
Decay Rate0.00010717
L11 52715U 22055A 22143.57912155 .00010717 00000+0 19800-3 0 9997
L22 52715 51.6434 98.4640 0005026 147.1299 4.6316 15.49630252341366

Live tracking and technical data element details for CST-100 STARLINER OFT-2 (NORAD 52715). CST-100 STARLINER OFT-2 can be tracked NOW for your location showing map with azimuth and elevation plus other details from your city location.

Track the satellite on the map from your city or location and see movement details for azimuth, elevation, latitude, longitude, range, height, and movement on the map or in text.







IsCatalogInMostPopularTable: catalog: 52715, numindb: 22
Update: records affected: 1



GetName: 52715 CST-100 STARLINER OFT-2

Hit Count: updated at: Sat, 25 Jun 2022 04:22:56 GMT